Retour au catalogue

COSMOS 2251 DEB

ActifLEO
NORAD 34003·DEBRIS·🇷🇺 Russia

Lancé Jun 16, 1993 depuis Plesetsk Cosmodrome

Loading…

Prochains Passages (prochaines 24 heures)

TLE

FraisSource: Space-Track

Époque: Sep 14, 2026, 04:39 UTC

1 34003U 93036GN  26257.19429911  .00001172  00000-0  78356-3 0  9992
2 34003  74.0773 181.0028 0276666 229.0819 128.6056 13.85128740882380

Suivez COSMOS 2251 DEB en temps réel avec AllMySat

Download on the App Store